Regional Weather Roundup
Issued by NWS

Home | Current Version | Previous Version | Graphics & Text | Print | Product List | Glossary On
Versions: 1 2 3 4 5 6 7 8 9 10 11 12 13 14 15 16 17 18 19 20 21 22 23 24 25 26 27 28 29 30 31 32 33 34 35 36 37 38 39 40 41 42 43 44 45 46 47 48 49 50
000
ASUS45 KBOU 250910
RWRCO

WEATHER ROUNDUP FOR COLORADO
NATIONAL WEATHER SERVICE DENVER/BOULDER CO
300 AM MDT SUN SEP 25 2016

NOTE: "FAIR" INDICATES FEW OR NO CLOUDS BELOW 12000 FEET WITH NO
SIGNIFICANT WEATHER AND/OR OBSTRUCTIONS TO VISIBILITY.

COZ001>005-013-030-031-251000-
...NORTHWEST COLORADO...

CITY           SKY/WX    TMP DP  RH WIND       PRES   REMARKS
CRAIG          FOG       37  36  96 S5        30.45S VSB 3/4
HAYDEN         MOCLDY    39  36  87 CALM      30.45S
MEEKER         FAIR      37  37 100 E5        30.45S
MOUNT WERNER   NOT AVBL
STEAMBOAT SPGS CLOUDY    40  39  97 E5        30.45S
WALDEN           N/A     36  34  93 N6        30.47S
$$

COZ006>008-011-251000-
...WEST CENTRAL VALLEYS...

CITY           SKY/WX    TMP DP  RH WIND       PRES   REMARKS
GRAND JUNCTION FAIR      45  41  86 NW5       30.38S
MONTROSE       CLOUDY    45  42  89 SE5       30.42R
EAGLE          CLOUDY    43  41  93 S3        30.47S
RIFLE          FAIR      46  45  96 E5        30.42S
DELTA          NOT AVBL
NUCLA          FAIR      46  36  66 NE7       30.42S
$$

COZ017>023-064>068-251000-
...SOUTHWEST COLORADO...

CITY           SKY/WX    TMP DP  RH WIND       PRES   REMARKS
DURANGO        FAIR      37  31  78 CALM      30.32R
CORTEZ         FAIR      36  33  89 E3        30.31R
PAGOSA SPRINGS FAIR      35  30  79 N5        30.38R WCI  31
TELLURIDE      FAIR      36  32  84 CALM      30.47R
WOLF CREEK PAS FAIR      27  23  86 MISG      30.55R
$$

COZ009-010-012-014-032>034-037-058>063-251000-
...CENTRAL COLORADO...

CITY           SKY/WX    TMP DP  RH WIND       PRES   REMARKS
ASPEN          LGT RAIN  41  38  89 S3        30.46R
BUENA VISTA    FAIR      39  26  58 CALM      30.44R
COPPER MTN     CLOUDY    32  28  86 MISG      30.55S
BERTHOUD PASS  CLOUDY    23  10  58 NW7G18    30.55S WCI  15
COTTONWOOD PAS FAIR      37  27  65 S5        30.49R
GUNNISON       FAIR      37  34  87 NE3       30.45R
KREMMLING      MOCLDY    37  32  81 CALM      30.47S
LEADVILLE      CLOUDY    32  27  81 N9        30.48R WCI  24
SALIDA         FAIR      38  29  70 NW6       30.50R
SUNLIGHT       CLOUDY    32  32 100 MISG      30.57S
WILKERSON PASS MOCLDY    30  23  74 E5        30.55R WCI  25
$$

COZ069>075-251000-
...SAN LUIS VALLEY/SANGRE DE CRISTO MOUNTAINS...

CITY           SKY/WX    TMP DP  RH WIND       PRES   REMARKS
ALAMOSA        MOCLDY    37  29  72 N7        30.40R
LA VETA PASS   FAIR      32  27  80 MISG      30.49R
SAGUACHE       NOT AVBL
$$

COZ035-036-038>040-251000-
...NORTHERN COLORADO FRONT RANGE...

CITY           SKY/WX    TMP DP  RH WIND       PRES   REMARKS
DENVER INTL AP FAIR      42  32  67 S8        30.36R
DMNS CITY PARK NOT AVBL
AURORA         PTCLDY    44  33  64 VRB3      30.37S
FRONT RANGE AP FAIR      45  34  65 S5        30.37R
ERIE MUNI ARPT CLOUDY    52  35  52 S3        30.35R
BOULDER MUN AP CLOUDY    52  36  54 SE3       30.34S
CENTENNIAL     MOCLDY    48  33  56 S6        30.38R
BROOMFIELD     CLOUDY    50  36  57 S5        30.37R
FORT COLLINS   CLOUDY    52  36  54 N15       30.33S
LONGMONT       CLOUDY    53  37  55 CALM      30.36R
$$

COZ041-046-047-076>085-087-088-251000-
...PIKES PEAK/PALMER DIVIDE AND SOUTHERN FOOTHILLS...

CITY           SKY/WX    TMP DP  RH WIND       PRES   REMARKS
COLO. SPRINGS  MOCLDY    47  33  58 NW13      30.39R
A. F. ACADEMY  MOCLDY    40  30  67 N8        30.38S
SCHRIEVER AFB  NOT AVBL
ELLICOTT       NOT AVBL
FALCON         FAIR      42  32  67 N8        30.40R
FORT CARSON    CLOUDY    49  34  56 NW10      30.36R
LIMON          CLOUDY    48  35  60 NW14G25   30.35R
MONUMENT HILL  FAIR      32  30  93 W3        30.42R
TRINIDAD       FAIR      43  28  55 SW8       30.37R
$$

COZ042>045-048>051-090-091-251000-
...NORTHEAST COLORADO...

CITY           SKY/WX    TMP DP  RH WIND       PRES   REMARKS
GREELEY ARPT   CLOUDY    50  36  57 NW12      30.33F
AKRON          FAIR      44  35  70 NW12      30.32R
BURLINGTON     FAIR      47  39  74 NW7       30.30R
WRAY           NOT AVBL
STERLING       FAIR      37  36  93 SW3       30.30R
HOLYOKE        FAIR      45  37  76 W9        30.28S
FORT MORGAN    FAIR      42  34  71 NW7       30.34R
$$

COZ086-089-092>099-251000-
...SOUTHEAST COLORADO...

CITY           SKY/WX    TMP DP  RH WIND       PRES   REMARKS
PUEBLO         CLOUDY    55  35  47 VRB6      30.33R
LA JUNTA       FAIR      55  37  50 N15G22    30.29R
LAMAR          FAIR      55  39  54 N14       30.23R
SPRINGFIELD    NOT AVBL
$$



USA.gov is the U.S. government's official web portal to all federal, state and local government web resources and services.